17:30
Airports
History
Links
Donate
Help keep this website running!
PayPal
Bitcoin
Information on this page is community maintained and may be outdated or inaccurate and is intended for reference only or PC simulator navigating.
Always use approved charts for navigating.
SC80
Anderson
Anderson (SC80)
Pendleton, South Carolina, United States (29670)
4
Lat/Lng:34° 40' 4" N / 82° 42' 36" W
34.667778 / -82.71
Elevation:817'ft 249mMSL
ID / ICAO:SC80
Runways:1
Longest:(08-26) 450.6m 1,478ft Grass
Distance To
Airport ID:
Nearby VORs <50NM
Nearby NDBs
Nearby WeatherUpdated 06-27-17 16:56 GMT
Nearby weather at KAND, Anderson Rgnl located 12.0 nautical miles from SC80
Altimeter: 30.08
Visibility: 10.0 statute miles
Wind: 6 knots (060°)
Temp: 27°c 81°f
Humidity: 42.0%

METAR: KAND 271656Z AUTO 06006KT 10SM CLR 27/13 A3008 RMK AO2 SLP176 T02720133

(Powered by phpweather)
Runway 08 / 26
Dimensions:450.6 x 18.3m 1478' x 60'ft
Surface:Grass
Runway 08 [A]Runway 26 [B]
Heading:076°TH 256°TH
Lat:
Lng:
34° 40' 2.21"N
82° 42' 44.74"W
34° 40' 5.79"N
82° 42' 27.26"W
User Notes and Comments
Google Map
Nearby Airports
(U) Pickens County 9.8 NM
KLQK N
(U) Oconee County Rgnl 10.0 NM
KCEU W 271°
(R) Eagle Ridge 11.6 NM
SC24 W 271°
(R) Oakview 11.7 NM
SC52 NNW 328°
4 Sky Valley Airpark 11.8 NM
SC32 E 95°
(U) Anderson Rgnl 12.0 NM
KAND (WX) S 179°
(R) Tokeena Air Park 14.8 NM
SC96 WSW 239°
VFR Chart
Flight Planning at SkyVector.com